Weather History for Ontario, OR

Change the Weather History Date:

Monday, October 7, 2013

  Actual Average Record
Temperature  
Mean Temperature 52 °F 54 °F  
Max Temperature 70 °F 71 °F 90 °F (1971)
Min Temperature 34 °F 37 °F 21 °F (1974)
Degree Days  
Heating Degree Days 13 11  
Month to date heating degree days 102 67  
Since 1 July heating degree days 190 201  
Cooling Degree Days 0 0  
Month to date cooling degree days 0 0  
Year to date cooling degree days 1299 851  
Growing Degree Days 2 (Base 50)    
Moisture  
Dew Point 35 °F    
Average Humidity 61    
Maximum Humidity 96    
Minimum Humidity 25    
Precipitation  
Precipitation 0.00 in 0.01 in 0.17 in (1975)
Month to date precipitation 0.00 0.10  
Year to date precipitation 3.77 6.75  
Sea Level Pressure  
Sea Level Pressure 29.99 in    
Wind  
Wind Speed 5 mph (WNW)    
Max Wind Speed 29 mph    
Max Gust Speed 33 mph    
Visibility 10 miles    
Events      
T = Trace of Precipitation, MM = Missing Value Source: NWS Daily Summary

Daily Weather History Graph

Daily Weather History Graph

Search for Another Location

Airport:

Trip Planner

Search our weather history database for the weather conditions in past years. The results will help you decide how hot, cold, wet, or windy it might be!

Date:

Astronomy

Oct. 07, 2013 Rise Set
Actual Time 7:53 AM MDT 7:17 PM MDT
Civil Twilight 7:24 AM MDT 7:46 PM MDT
Nautical Twilight 6:50 AM MDT 8:19 PM MDT
Astronomical Twilight 6:17 AM MDT 8:53 PM MDT
Moon 10:54 AM MDT (10/7) 8:59 PM MDT (10/7)
Length of Visible Light 12h 21m
Length of Day
11h 24m
Waxing Crescent, 9% of the Moon is Illuminated
Oct 7
Waxing Crescent
Oct 11
First Quarter
Oct 18
Full
Oct 26
Last Quarter
Nov 3
New

Hourly Weather History & Observations

Time (MDT) Temp. Windchill Dew Point Humidity Pressure Visibility Wind Dir Wind Speed Gust Speed Precip Events Conditions
12:53 AM 44.1 °F - 36.0 °F 73% 30.04 in 8.0 mi Calm Calm - N/A   Clear
1:53 AM 41.0 °F - 36.0 °F 82% 30.04 in 10.0 mi Calm Calm - N/A   Clear
2:53 AM 43.0 °F 41.3 °F 36.0 °F 76% 30.03 in 10.0 mi SW 3.5 mph - N/A   Clear
3:53 AM 42.1 °F - 36.0 °F 79% 30.02 in 10.0 mi Calm Calm - N/A   Clear
4:53 AM 39.0 °F 35.7 °F 35.1 °F 86% 30.01 in 10.0 mi ENE 4.6 mph - N/A   Clear
5:53 AM 36.0 °F - 32.0 °F 86% 30.03 in 10.0 mi Calm Calm - N/A   Clear
6:53 AM 35.1 °F - 32.0 °F 89% 30.03 in 10.0 mi Calm Calm - N/A   Clear
7:53 AM 34.0 °F 31.0 °F 32.0 °F 92% 30.06 in 10.0 mi NW 3.5 mph - N/A   Clear
8:53 AM 37.9 °F - 34.0 °F 86% 30.06 in 10.0 mi Calm Calm - N/A   Clear
9:53 AM 46.9 °F - 37.0 °F 68% 30.06 in 10.0 mi Calm Calm - N/A   Clear
10:53 AM 52.0 °F - 37.9 °F 59% 30.05 in 10.0 mi Calm Calm - N/A   Clear
11:53 AM 57.0 °F - 37.0 °F 47% 30.03 in 10.0 mi Calm Calm - N/A   Clear
12:53 PM 62.1 °F - 35.1 °F 37% 30.00 in 10.0 mi Calm Calm - N/A   Clear
1:53 PM 64.9 °F - 34.0 °F 32% 29.97 in 10.0 mi Calm Calm - N/A   Clear
2:53 PM 66.9 °F - 35.1 °F 31% 29.94 in 10.0 mi Calm Calm - N/A   Clear
3:53 PM 70.0 °F - 32.0 °F 25% 29.91 in 10.0 mi Variable 3.5 mph - N/A   Clear
4:53 PM 69.1 °F - 33.1 °F 26% 29.90 in 10.0 mi South 3.5 mph - N/A   Clear
5:53 PM 68.0 °F - 34.0 °F 28% 29.89 in 9.0 mi WSW 4.6 mph - N/A   Partly Cloudy
6:53 PM 66.0 °F - 30.0 °F 26% 29.89 in 10.0 mi SW 4.6 mph - N/A   Overcast
7:53 PM 61.0 °F - 34.0 °F 36% 29.91 in 10.0 mi NW 11.5 mph - N/A   Clear
8:53 PM 57.0 °F - 37.0 °F 47% 29.94 in 10.0 mi NW 18.4 mph 26.5 mph N/A   Clear
9:53 PM 55.0 °F - 36.0 °F 49% 29.95 in 10.0 mi NNW 18.4 mph 26.5 mph N/A   Clear
10:53 PM 54.0 °F - 36.0 °F 51% 29.98 in 10.0 mi NNW 6.9 mph - N/A   Clear
11:53 PM 52.0 °F - 36.0 °F 54% 29.99 in 10.0 mi WNW 15.0 mph - N/A   Clear